Location: Friaudour
(46.0460°N, 1.2873°E)
Time: 08:24:53
(UTC+00:00)

Cosmos 2221 Rocket - Pass Details

Date: 14 July 2020
Orbit: 620 x 649 km, 82.5° (Epoch: 14 August)

Event Time Altitude Azimuth Distance (km) Brightness Sun altitude
Rises 02:10:08 0° 348° (NNW) 2,913 7.8 -16.3°
Reaches altitude 10° 02:12:23 10° 347° (NNW) 2,000 6.8 -16.1°
Maximum altitude 02:16:46 71° 265° (W) 661 3.5 -15.6°
Enters shadow 02:19:27 23° 184° (S) 1,325 4.7 -15.4°
